Flag Weather past 2 weeks in Columbia, South Carolina, U.S.A.

Now
49 °F

Mostly cloudy.


Feels Like: 46 °F
Forecast: 44 / 55 °F
Wind: 7 mph from North

Location: Columbia Owens Downtown Airport

Current Time: Nov 26, 2014 at 11:40:52 AM

Latest Report: Nov 26, 2014 at 10:53 AM


Visibility: 10 mi

Pressure: 30.02 "Hg

Humidity: 90%

Dew point: 46 °F

Location of ColumbiaLocation

Historic Weather in Columbia — Graph

°F

Columbia temperature yesterday

Maximum temperature yesterday: 63 °F (at 12:53 AM)
Minimum temperature yesterday: 57 °F (at 10:53 PM)
Average temperature yesterday: 61 °F

Past Weeks' High & Low Weather Summary

 TemperatureHumidityPressure
High77 °F (Nov 11, 1:53 PM)97% (Nov 17, 5:53 AM)30.57 "Hg (Nov 17, 5:53 AM)
Low23 °F (Nov 19, 6:53 AM)20% (Nov 19, 3:53 PM)29.67 "Hg (Nov 17, 2:53 PM)
Average50 °F67%30.13 "Hg
* Reported Nov 11 10:53 AM — Nov 26 10:01 AM, Columbia, Weather by CustomWeather, © 2014

Note: Actual official high and low records may vary slightly from our data, if they occured in-between our weather recording intervals... More about our weather records

Advertising

Columbia weather history for previous 24 hours

 ConditionsComfort  
Time TempWeatherWind HumidityBarometerVisibility
10:01 AM
Nov 26
49 °FHeavy rain. Fog.9 mph90%30.03 "Hg2 mi
8:53 AM49 °FOvercast.5 mph86%29.95 "Hg10 mi
7:55 AM48 °FLight rain. More clouds than sun.5 mph89%29.99 "Hg8 mi
7:04 AM48 °FLight rain. Fog.6 mph89%29.99 "Hg6 mi
6:53 AM48 °FRain. Fog.6 mph89%29.96 "Hg4 mi
6:02 AM49 °FLight rain. Mostly cloudy.8 mph90%29.92 "Hg7 mi
5:53 AM49 °FLight rain. Fog.3 mph90%29.92 "Hg6 mi
4:53 AM51 °FRain. Fog.9 mph89%29.95 "Hg3 mi
3:58 AM52 °FLight rain. Fog.6 mph89%29.90 "Hg5 mi
3:03 AM53 °FHeavy rain. Fog.10 mph89%29.91 "Hg2 mi
2:53 AM53 °FHeavy rain. Fog.6 mph89%29.90 "Hg4 mi
1:53 AM54 °FRain. Fog.N/A90%29.90 "Hg3 mi
12:53 AM56 °FLight rain. Mostly cloudy.6 mph90%29.92 "Hg7 mi
11:53 PM
Nov 25
57 °FLight rain. Fog.3 mph93%29.97 "Hg4 mi
10:53 PM57 °FLight rain. Fog.3 mph93%29.98 "Hg5 mi
9:53 PM58 °FLight rain. Fog.No wind93%30.01 "Hg3 mi
8:53 PM58 °FFog.No wind90%30.03 "Hg5 mi
7:53 PM58 °FLight rain. Mostly cloudy.No wind90%30.04 "Hg8 mi
6:53 PM58 °FOvercast.No wind87%30.03 "Hg9 mi
5:53 PM58 °FFog.No wind93%30.01 "Hg5 mi
4:53 PM59 °FFog.No wind90%30.03 "Hg6 mi
3:53 PM60 °FMore clouds than sun.No wind80%30.02 "Hg10 mi
2:53 PM61 °FLight rain. Partly sunny.3 mph81%30.01 "Hg9 mi
1:53 PM62 °FLight rain. Mostly cloudy.5 mph75%30.02 "Hg10 mi
12:53 PM63 °FPassing clouds.No wind73%30.00 "Hg10 mi
11:53 AM62 °FPartly sunny.No wind73%30.06 "Hg10 mi
Weather by CustomWeather, © 2014

See weather overviewHow to use our weather pages